Location: *
(45.9500°N, 9.0833°E)
Time: 00:29:54
(UTC+00:00)

Vanguard 2 Rocket - Pass Details

Date: 13 June 2021
Orbit: 555 x 3325 km, 32.9° (Epoch: 03 August)

Event Time Altitude Azimuth Distance (km) Brightness Sun altitude
Rises 16:59:26 0° 185° (S) 7,300 11.4 20.6°
Reaches altitude 10° 17:08:59 10° 163° (SSE) 6,133 10.9 19.0°
Maximum altitude 17:15:53 13° 141° (SE) 5,579 10.5 17.8°
Drops below altitude 10° 17:22:06 10° 119° (ESE) 5,458 10.3 16.8°
Sets 17:29:12 0° 96° (E) 5,882 10.4 15.6°
